AirNav   Pilot Hours Calculator
 
 466 users online  

KUKT Quakertown Airport
Quakertown, Pennsylvania, USA

GOING TO QUAKERTOWN?


FAA INFORMATION EFFECTIVE 16 JUNE 2022

Location

FAA Identifier: UKT
Lat/Long: 40-26-06.5000N 075-22-55.0000W
40-26.108333N 075-22.916667W
40.4351389,-75.3819444
(estimated)
Elevation: 525.1 ft. / 160.1 m (surveyed)
Variation: 12W (2005)
From city: 2 miles W of QUAKERTOWN, PA
Time zone: UTC -4 (UTC -5 during Standard Time)
Zip code: 18951

Airport Operations

Airport use: Open to the public
Activation date: 11/1946
Control tower: no
ARTCC: NEW YORK CENTER
FSS: WILLIAMSPORT FLIGHT SERVICE STATION
NOTAMs facility: UKT (NOTAM-D service available)
Attendance: 0830-1700
Wind indicator: lighted
Segmented circle: no
Lights: DUSK-DAWN. ACTVT MIRL RY 11/29 AND REIL RYS 11 & 29 - CTAF.
Beacon: white-green (lighted land airport)
Operates sunset to sunrise.

Airport Communications

CTAF/UNICOM: 122.725
WX AWOS-3: 119.475 (215-538-7610)
PHILADELPHIA APPROACH: 123.8
PHILADELPHIA DEPARTURE: 123.8
CLEARANCE DELIVERY: 118.55
WX AWOS-3 at CKZ (5 nm SE): 126.325 (215-257-7291)
WX AWOS-3 at XLL (9 nm NW): 127.875 (610-231-3111)
WX ASOS at ABE (13 nm N): 126.975 (610-264-1765)
WX ASOS at DYL (13 nm SE): 118.875 (215-345-0392)
WX ASOS at PTW (14 nm SW): 119.425 (610-495-0823)
WX AWOS-3 at LOM (19 nm S): 118.925 (215-646-1068)
WX AWOS-3 at N40 (20 nm NE): 121.725
  • CLEARANCE DELIVERY PHILADELPHIA APCH TF 800-354-9884.

Airport Services

Fuel available: 100LL
100LL:100 LL AVBL 24 HRS SELF-SERVE CREDIT CARD
Parking: tiedowns
Airframe service: MAJOR
Powerplant service: MAJOR
Bottled oxygen: NONE
Bulk oxygen: NONE

Runway Information

Runway 11/29

Dimensions: 3210 x 75 ft. / 978 x 23 m
Surface: asphalt, in good condition
Weight bearing capacity: 
Single wheel: 12.0
Runway edge lights: medium intensity
RUNWAY 11  RUNWAY 29
Latitude: 40-26.149525N40-26.068135N
Longitude: 075-23.258947W075-22.575312W
Elevation: 525.1 ft.505.1 ft.
Traffic pattern: leftleft
Runway heading: 111 magnetic, 099 true291 magnetic, 279 true
Displaced threshold: no190 ft.
Declared distances: TORA:3210 TODA:3210TORA:3210 TODA:3210
Markings: nonprecision, in good conditionnonprecision, in good condition
Visual slope indicator: 2-light PAPI on left (4.00 degrees glide path)2-light PAPI on left (4.00 degrees glide path)
Runway end identifier lights: yesyes
Touchdown point: yes, no lightsyes, no lights
Obstructions: 30 ft. brush, 523 ft. from runway, 73 ft. right of centerline, 10:1 slope to clear94 ft. trees, 1718 ft. from runway, 460 ft. right of centerline, 16:1 slope to clear
32 FT TREES 176 FT FM RWY END 175 FT LEFT.

Airport Ownership and Management from official FAA records

Ownership: Publicly-owned
Owner: BUCKS COUNTY AIRPORT AUTH
OLD EASTON RD, PO BOX 1185
DOYLESTOWN, PA 18901
Phone 215-345-1970
Manager: MIKE CAMPBELL
2425 MILFORD SQ PIKE
QUAKERTOWN, PA 18951
Phone 215-538-3055

Airport Operational Statistics

Aircraft based on the field: 86
Single engine airplanes: 76
Multi engine airplanes: 6
Jet airplanes: 1
Helicopters: 1
Ultralights: 2
    
Aircraft operations: avg 81/day *
79% local general aviation
20% transient general aviation
<1% air taxi
<1% military
* for 12-month period ending 17 November 2021

Additional Remarks

DEER ON & INVOF ARPT.
ACFT WITH WING SPAN GREATER THAN 54.5 FEET MUST COORDINATE WITH AMGR.
FOR CD CTC PHILADELPHIA APCH AT 800-354-9884.

Instrument Procedures

NOTE: All procedures below are presented as PDF files. If you need a reader for these files, you should download the free Adobe Reader.

NOT FOR NAVIGATION. Please procure official charts for flight.
FAA instrument procedures published for use from 16 June 2022 at 0901Z to 14 July 2022 at 0900z.

 
IAPs - Instrument Approach Procedures
RNAV (GPS) RWY 11   download (202KB)
RNAV (GPS) RWY 29   download (207KB)
NOTE: Special Alternate Minimums apply   download (34KB)
NOTE: Special Take-Off Minimums/Departure Procedures apply   download (149KB)

Other nearby airports with instrument procedures:

KCKZ - Pennridge Airport (5 nm SE)
KXLL - Allentown Queen City Municipal Airport (9 nm NW)
KABE - Lehigh Valley International Airport (13 nm N)
KDYL - Doylestown Airport (13 nm SE)
KPTW - Heritage Field Airport (14 nm SW)
N47 - Pottstown Municipal Airport (17 nm SW)
KLOM - Wings Field Airport (19 nm S)
N85 - Alexandria Airport (19 nm NE)
N43 - Braden Airpark (19 nm N)
N40 - Sky Manor Airport (20 nm NE)
 
Loc | Ops | Rwys | IFR | FBO | Links
Com | Nav | Svcs | Stats | Notes
Area around KUKT (Quakertown Airport)
 
Road maps at: MapQuest Bing Google
 
Aerial photo
WARNING: Photo may not be current or correct
Aerial photo of KUKT (Quakertown Airport)
Photo by Salvatore A. Boccuti www.salboccuti.com
Photo taken 23-Mar-2008

Do you have a better or more recent aerial photo of Quakertown Airport that you would like to share? If so, please send us your photo.

 
Sectional chart

 
Airport distance calculator
Flying to Quakertown Airport? Find the distance to fly.

From to KUKT

Sunrise and sunset
Times for 30-Jun-2022
 Local
(UTC-4)
 Zulu
(UTC)
Morning civil twilight05:0209:02
Sunrise05:3509:35
Sunset20:3500:35
Evening civil twilight21:0801:08

Current date and time
Zulu (UTC)  30-Jun-2022 09:44:43
Local (UTC-4)  30-Jun-2022 05:44:43
 
METAR
KUKT 300935Z AUTO 00000KT 10SM CLR 15/15 A3022 RMK A01
KCKZ 
5nm SE 
300935Z AUTO 00000KT 10SM CLR 15/15 A3022 RMK AO2
KXLL 
9nm NW 
300935Z AUTO 00000KT 10SM CLR 15/14 A3023 RMK AO2
KABE 
13nm N 
300851Z 32003KT 10SM CLR 15/13 A3020 RMK AO2 SLP225 T01500128 53002
KDYL 
14nm SE 
300854Z AUTO 00000KT 10SM CLR 18/16 A3019 RMK AO2 SLP218 T01830156 55001
KPTW 
14nm SW 
300854Z AUTO 00000KT 7SM CLR 16/15 A3022 RMK AO2 SLP228 T01560150 55002
KLOM 
19nm S 
300935Z AUTO 7SM CLR 16/15 A3021 RMK AO2 T01560154
TAF
KABE 
13nm N 
300520Z 3006/0106 VRB02KT P6SM SKC FM301700 29007KT P6SM SKC FM302100 26005KT P6SM FEW250 FM010100 VRB03KT P6SM SKC
NOTAMs
Click for the latest NOTAMs
NOTAMs are issued by the DoD/FAA and will open in a separate window not controlled by AirNav.

 

 
 

FBO, Fuel Providers, and Aircraft Ground Support

  
 Business Name 
 
 Contact 
 
 Services / Description 
 
Fuel Prices
 
Comments
  
Heartwood Aviation 215-538-3055
no information available

If you are affiliated with Heartwood Aviation and would like to show here your services, contact info, web link, logo, and more, click here
100LL
SS $7.25 
 Updated 21-Jun-2022
 
   write
SS=Self service
Update Fuel Prices
 

Would you like to see your business listed on this page?

 If your business provides an interesting product or service to pilots, flight crews, aircraft, or users of the Quakertown Airport, you should consider listing it here.  To start the listing process, click on the button below
 
Add a business
 

Other Pages about Quakertown Airport

www.bcaanet.org/...
 
Update a link
 
Copyright © AirNav, LLC. All rights reserved. Privacy Policy  Contact